www.pogodaiklimat.ru

Погода и климат >> Архив погоды >> Россия >> Орловская область >> Орел


АРХИВ ПОГОДЫ в Орле

Время (UTC), дата Ветер
(напр.,м/с)
 
Видим.   Явления Облачность Т
(С)
Тd
(С)
f
(%)
Тe
(С)
Тes
(С)
Комфортность P
(гПа)
Po
(гПа)
Тmin
(С)
Tmax
(С)
R
(мм)
R24
(мм)
S
(см)
21 8.07 З 1 10 км ясно +15.2 +13.4 89 +16 +16 по сезону 1008.3 985.4
00 9.07 З 1 10 км 3/0
[Ac trans]
+14.3 +13.2 93 +15 +15 по сезону 1008.6 985.7
03 9.07 З 1 10 км 10/10 600 м
[Sc]
+15.6 +14.9 96 +16 +16 по сезону 1009.0 986.1 +13.9
06 9.07 З 2 10 км 9/9 600 м
[Cb calv]
+18.9 +14.8 77 +21 +21 комфорт 1009.5 986.8 +13.9
09 9.07 З 2 10 км 8/8 600 м
[Cb calv]
+21.4 +13.0 59 +24 +27 комфорт 1010.1 987.5
12 9.07 СЗ 2 10 км 6/4 600 м
[Cb calv Ac trans Ci fib]
+24.3 +15.3 57 +27 +34 жарко 1010.2 987.8
15 9.07 СЗ 1 10 км 6/3 600 м
[Cb calv Ac trans Cc]
+24.3 +13.7 52 +27 +29 жарко 1010.7 988.3
18 9.07 З 1 10 км 5/3 600 м
[Sc Ac trans]
+18.7 +14.6 77 +21 +21 комфорт 1012.5 989.8 +26.0
21 9.07 штиль 0 10 км ясно +15.2 +12.5 84 +15 +15 по сезону 1013.1 990.0
00 10.07 штиль 0 10 км ясно +13.6 +12.1 91 +13 +13 по сезону 1013.7 990.5
03 10.07 З 1 4000 м дымка 1/0
[Ac trans]
+15.0 +14.5 97 +15 +17 по сезону 1014.5 991.4 +12.9
06 10.07 З 1 10 км 1/1 600 м
[Cu hum]
+20.7 +15.1 70 +25 +34 комфорт 1014.7 992.0 +12.9
09 10.07 С 1 10 км 6/6 600 м
[Cu med, cong]
+23.6 +14.1 55 +26 +34 жарко 1014.7 992.1
12 10.07 З 1 10 км 8/8 600 м
[Cu med, cong]
+26.0 +10.5 38 +27 +30 жарко 1014.3 992.0
15 10.07 СЗ 1 10 км 4/4 600 м
[Cu hum]
+26.0 +10.7 38 +27 +29 жарко 1014.2 991.9
18 10.07 С 1 10 км 1/1 600 м
[Cu hum]
+21.0 +13.9 64 +25 +25 комфорт 1015.2 992.5 +27.0
21 10.07 С 1 10 км ясно +16.8 +13.2 79 +18 +18 тепло 1016.1 993.0
00 11.07 штиль 0 10 км 5/5 600 м
[Sc]
+13.5 +12.2 92 +13 +13 по сезону 1016.6 993.3
03 11.07 СЗ 1 10 км 1/1 600 м
[Sc]
+15.0 +13.2 89 +15 +16 по сезону 1016.6 993.4 +13.4
06 11.07 С 2 10 км 4/0
[Ci fib]
+22.2 +14.0 60 +25 +33 комфорт 1015.9 993.3 +13.4
09 11.07 З 2 10 км 8/6 600 м
[Cu med, cong Ci fib]
+24.9 +12.8 47 +27 +33 жарко 1015.4 993.0
12 11.07 штиль 0 10 км 8/6 600 м
[Cu med, cong Ci fib]
+24.9 +11.5 43 +26 +32 жарко 1014.8 992.4
15 11.07 С 1 10 км 8/3 600 м
[Cu med, cong Ci fib]
+26.4 +11.5 39 +28 +30 жарко 1013.6 991.4
18 11.07 штиль 0 10 км 8/3 600 м
[Sc Ci fib]
+20.4 +13.6 65 +22 +22 комфорт 1014.4 991.6 +26.7
21 11.07 С 1 10 км 5/0
[Ci fib]
+17.4 +14.1 81 +18 +18 по сезону 1014.7 991.7
00 12.07 штиль 0 10 км 8/0
[Ac trans Ci fib]
+15.5 +13.9 90 +15 +15 по сезону 1014.7 991.5
03 12.07 штиль 0 10 км 9/0
[Ac trans Ci sp]
+15.4 +14.7 96 +15 +16 по сезону 1015.0 991.8 +14.4
06 12.07 штиль 0 10 км 9/0
[Ci fib]
+22.1 +16.9 72 +26 +36 душно 1014.2 991.6 +14.4
09 12.07 С 1 10 км 9/8 600 м
[Cb calv Ac trans Ci fib]
+25.2 +16.3 58 +29 +31 душно 1013.3 991.0
12 12.07 С 1 10 км 8/5 600 м
[Cb calv Ac trans]
+26.9 +13.3 43 +29 +33 жарко 1012.7 990.6
15 12.07 СВ 2 10 км 5/5 600 м
[Cb calv]
+26.3 +14.5 48 +29 +30 жарко 1012.1 989.9
18 12.07 С 1 10 км 3/0
[Ac trans Ci fib]
+23.0 +15.7 63 +27 +27 душно 1012.6 990.2 +27.8
21 12.07 штиль 0 10 км ясно +18.0 +15.8 87 +18 +18 по сезону 1013.2 990.4
00 13.07 штиль 0 10 км ясно +15.6 +14.7 94 +15 +15 по сезону 1013.2 990.1
03 13.07 штиль 0 10 км ясно +15.9 +15.2 96 +16 +17 по сезону 1013.8 990.8 +14.5
06 13.07 В 1 10 км 3/0
[Ac trans Ci fib]
+24.7 +15.9 58 +28 +37 душно 1012.8 990.5 +14.5
09 13.07 СВ 1 10 км 8/5 600 м
[Cu hum Ac trans Ci fib]
+27.3 +14.3 45 +30 +36 душно 1011.9 989.8
12 13.07 Ю 2 10 км 6/5 600 м
[Cb calv Ci fib]
+28.7 +13.2 39 +30 +36 жарко 1010.2 988.1
15 13.07 В 3 10 км слабый ливневой дождь 10/8 300 м
[Cb calv As op]
+24.5 +14.8 55 +27 +27 жарко 1009.6 987.2 0.0
18 13.07 З 2 10 км слабый ливневой дождь 9/8 300 м
[Cb calv Ci fib]
+21.7 +17.8 78 +26 +26 душно 1010.6 988.1 +28.8 0.3
21 13.07 В 1 10 км {ливн. осадки} 10/10 600 м
[Cb calv]
+20.2 +16.0 77 +24 +24 комфорт 1009.8 987.1
00 14.07 С 1 10 км в посл. час ливневой дождь {гроза} 9/6 600 м
[Cb calv Ac trans]
+18.2 +16.5 90 +20 +20 тепло 1009.4 986.6
03 14.07 В 2 10 км слабый ливневой дождь {гроза} 9/9 600 м
[Cb calv]
+18.0 +17.4 96 +19 +19 тепло 1009.5 986.7 +17.4 12
06 14.07 ЮВ 2 10 км {гроза, ливн. осадки} 8/1 600 м
[Sc Ci sp]
+19.6 +17.5 88 +23 +29 комфорт 1008.5 986.0 +17.4 12
09 14.07 ЮВ 2 10 км 9/3 600 м
[Cu hum Ci sp]
+24.0 +17.6 67 +28 +37 душно 1008.0 985.8
12 14.07 Ю 2 10 км 8/5 600 м
[Cu hum Ci fib]
+26.9 +17.6 57 +31 +37 душно 1006.2 984.2
15 14.07 В 2 10 км 9/8 600 м
[Cb calv Ci fib]
+25.8 +16.6 57 +29 +30 душно 1005.4 983.4 0.0
18 14.07 штиль 0 10 км 9/8 600 м
[Cb calv Ci sp]
+19.7 +17.4 87 +22 +22 комфорт 1006.1 983.6 +27.3
21 14.07 С 1 10 км в посл. час гроза {ливн. осадки} 10/8 600 м
[Cb calv As op]
+17.0 +15.7 92 +18 +18 по сезону 1006.5 983.8
00 15.07 штиль 0 10 км {гроза, ливн. осадки} 4/1 600 м
[Sc Ci fib]
+15.9 +14.9 94 +16 +16 по сезону 1007.1 984.3
03 15.07 ЮВ 2 10 км гроза, ливневой дождь 10/10 600 м
[Cb calv]
+17.2 +16.5 96 +18 +18 по сезону 1007.1 984.4 +15.6 4
06 15.07 С 1 10 км слабый ливневой дождь {гроза} 10/10 600 м
[Cb calv]
+18.4 +17.7 96 +20 +20 по сезону 1007.2 984.6 +15.6 10
09 15.07 С 1 10 км {ливн. осадки} 10/4 600 м
[Cb calv As op]
+20.7 +19.1 91 +26 +28 душно 1007.1 984.7
12 15.07 С 1 10 км {ливн. осадки} 10/5 600 м
[Cb calv As op]
+22.8 +18.4 76 +28 +30 душно 1006.4 984.1
15 15.07 СВ 1 10 км гроза, ливневой дождь 10/10 600 м
[Cb calv]
+19.9 +17.8 88 +24 +24 комфорт 1006.5 984.0 8
18 15.07 штиль 0 4000 м слабый ливневой дождь {гроза} 10/8 600 м
[Cb calv As trans]
+18.6 +17.6 94 +20 +20 по сезону 1006.7 984.1 +24.3 4

 

Местоположение метеостанции Орел (Орловская область, Россия): широта 52.93 долгота 36.00 высота над уровнем моря 196 м.

В архиве по умолчанию представлена погода в Орле за последнюю неделю. Архивные данные за месяц целиком и за предыдущие месяцы, начиная с января 2011 года, Вы можете получить, выбрав интересующий диапазон дат из раскрывающегося списка и нажав кнопку "Ввод!".


*Определитесь, кто Вы:
робот инопланетянин человек

Внимание! Время в таблицах - всемирное. Для получения местного времени необходимо прибавить поправку, которая в Орле равна 3 ч.

Смотрите также архив погоды в соседних городах и на ближайших метеорологических станциях:

Погода в Болхове (Орловская область, Россия) (56 км)
Погода в Мценске (Орловская область, Россия) (61 км)
Погода в Карачеве (Брянская область, Россия) (70 км)
Погода в Понырях (Курская область, Россия) (71 км)
Погода в Дмитровск-Орловский (Орловская область, Россия) (75 км)
Погода в Верховье (Орловская область, Россия) (86 км)
Погода в Фатеже (Курская область, Россия) (95 км)
Погода в Навле (Брянская область, Россия) (101 км)
Погода в Плавске (Тульская область, Россия) (114 км)
Погода в Брянске (Брянская область, Россия) (118 км)

Пояснения к столбцам:

Ветер - указаны скорость ветра в м/с - средняя за 10 мин, порывы в срок и между сроками (в фигурных скобках) и направление, откуда дует ветер: С - северный, СВ - северо-восточный, В - восточный, ЮВ - юго-восточный, Ю - южный, ЮЗ - юго-западный, З - западный, СЗ - северо-западный.
Видимость - горизонтальная дальность видимости в метрах или километрах. При видимости от 1 до 10 км при отсутствии осадков обычно наблюдается дымка, при ухудшении видимости до 1 км и менее - туман. В сухую погоду видимость может ухудшаться дымом, пылью или мглою.
Явления - указаны атмосферные явления, наблюдавшиеся в срок или в последний час перед сроком; фигурными скобками обозначены явления, наблюдавшиеся между сроками (за 1-3 часа до срока); квадратными скобками обозначены град или гололедные отложения с указанием их диаметра в мм.
Облачность - указаны через наклонную черту общая и нижняя облачность в баллах и высота нижней границы облаков в метрах; квадратными скобками обозначены формы облаков: Ci - перистые, Cs - перисто-слоистые, Cc - перисто-кучевые, Ac - высококучевые, As - высокослоистые, Sc - слоисто-кучевые, Ns - слоисто-дождевые, Cu - кучевые, Cb - кучево-дождевые. Подробнее классификацию облаков см. в Атласе облаков (PDF).
T - Температура воздуха - температура, измеренная на высоте 2 м над землей.
Td - Температура точки росы - температура, при понижении до которой содержащийся в воздухе водяной пар достигнет насыщения.
f - Относительная влажность воздуха - влажноcть воздуха, измеренная на высоте 2 м над землей.
Te - Эффективная температура - температура, которую ощущает одетый по сезону человек в тени. Характеристика душности погоды. При расчете учитывается влияние влажности воздуха и скорости ветра на теплоощущения человека.
Tes - Эффективная температура на солнце - температура, которую ощущает человек, с поправкой на солнечный нагрев. Характеристика знойности погоды. Зависит от высоты солнца над горизонтом, облачности и скорости ветра. Ночью, в пасмурную погоду, а также при ветре 12 м/с и более поправка равна нулю.
P - Атмосферное давление - приведенное к уровню моря атмосферное давление.
Po - Атмосферное давление - измеренное на уровне метеостанции атмосферное давление.
Tmin - Минимальная температура - минимум температуры воздуха на высоте 2 м над землей.
Tmax - Максимальная температура - максимум температуры воздуха на высоте 2 м над землей.
R - Количество осадков - Количество выпавших осадков за период времени, мм. При наведении курсора мыши на число - период времени, за который выпало указанное количество осадков.
R24 - Количество осадков - Количество выпавших осадков за 24 часа, мм.
S - Снежный покров - Высота снежного покрова, см. При наведении курсора мыши на число - состояние снежного покрова и степень покрытия местности в баллах.